Regional Weather Roundup
Issued by NWS

Home | Current Version | Previous Version | Graphics & Text | Print | Product List | Glossary On
Versions: 1 2 3 4 5 6 7 8 9 10 11 12 13 14 15 16 17 18 19 20 21 22 23 24 25 26 27 28 29 30 31 32 33 34 35 36 37 38 39 40 41 42 43 44 45 46 47 48 49 50
000
ASUS43 KLOT 110710
RWRIL

ILLINOIS REGIONAL WEATHER ROUNDUP
NATIONAL WEATHER SERVICE CHICAGO/ROMEOVILLE IL
200 AM CDT FRI JUL 11 2014

NOTE: "FAIR" INDICATES FEW OR NO CLOUDS BELOW 12,000 FEET WITH NO
SIGNIFICANT WEATHER AND/OR OBSTRUCTIONS TO VISIBILITY.

* THESE STATIONS ARE NOT UNDER NWS QUALITY CONTROL. THEY ALSO MAY NOT
  REPORT WEATHER SUCH AS PRECIPITATION OR FOG.

ILZ001-002-007-009-015-016-024-110800-
NORTHWEST ILLINOIS

CITY           SKY/WX    TMP DP  RH WIND       PRES   REMARKS
MOLINE         PTCLDY    64  57  78 S7        30.15S
STERLING*      MOCLDY    61  55  82 SE3       30.18R
SAVANNA*       MOCLDY    64  58  82 SE6       30.15F
$$

ILZ003-004-008-010-011-017-018-110800-
NORTH CENTRAL ILLINOIS

CITY           SKY/WX    TMP DP  RH WIND       PRES   REMARKS
ROCKFORD       MOCLDY    63  54  72 S5        30.20S
FREEPORT*      PTCLDY    58  55  90 S5        30.19S
ROCHELLE*      MOCLDY    58  55  89 SE6       30.18S
DE KALB*       MOCLDY    60  52  74 SE7       30.20R
PERU*          MOCLDY    66  57  72 S3        30.19R
$$

ILZ005-006-012>014-019>023-110800-
NORTHEAST ILLINOIS

CITY           SKY/WX    TMP DP  RH WIND       PRES   REMARKS
CHICAGO-OHARE  MOCLDY    63  51  65 CALM      30.19R
CHICAGO-MIDWAY MOCLDY    68  57  68 SE3       30.18S
AURORA         PTCLDY    60  53  77 CALM      30.19S
LANSING*       PTCLDY    55  51  85 CALM      30.19S
JOLIET*        PTCLDY    58  52  80 CALM      30.19F
WAUKEGAN       PTCLDY    57  52  83 CALM      30.18S
DUPAGE AIRPORT PTCLDY    60  52  74 CALM      30.18F
KANKAKEE*      PTCLDY    57  54  89 CALM      30.20S
WHEELING       PTCLDY    62  55  77 CALM      30.20S
MORRIS*        PTCLDY    60  57  88 CALM      30.18S
ROMEOVILLE*    PTCLDY    62  50  63 CALM      30.19S
NORTHERLY ISL    N/A     65  58  78 S3          N/A
$$

LMZ740>746-110800-
SOUTHERN LAKE MICHIGAN

STATION/POSITION SKY/WX   TEMP    WIND        PRES    VSBY  WAVE
                          AIR SEA DIR/SP/G                  HT/PER
                          (F)     (DEG/KT/KT) (MB)    (MI)  (FT/S)
SOUTHERN BUOY              60 59  190/  2/  2 1022.6R         0
WAUKEGAN HARBOR            63     190/  5/  5 1023.4S
HARRISON CRIB              67     160/  7/  8   N/A
BURNHAM HARBOR             65     170/  2/  3   N/A
CALUMET HARBOR             65     210/  1/  2 1023.0F
BURNS HARBOR               67     120/  3/  5 1022.4S
MICHIGAN CITY              62     110/  5/  7   N/A
$$

ILZ025>027-034>036-040-047-049-050-058-095>099-110800-
WEST-CENTRAL ILLINOIS

CITY           SKY/WX    TMP DP  RH WIND       PRES   REMARKS
QUINCY         CLEAR     62  56  80 SE5       30.15S
GALESBURG*     CLEAR     63  58  86 SE3       30.16F
MACOMB*        CLEAR     59  56  89 SE6       30.18F
JACKSONVILLE*  PTCLDY    60  56  85 E5        30.17S
PITTSFIELD*    PTCLDY    62  56  82 CALM      30.17R
$$

ILZ028>032-037-038-041>044-048-051>054-059>061-110800-
CENTRAL ILLINOIS

CITY           SKY/WX    TMP DP  RH WIND       PRES   REMARKS
PONTIAC        MOCLDY    59  57  94 SE3       30.19R
BLOOMINGTON    MOCLDY    60  53  77 SE5       30.20S
DECATUR        MOCLDY    58  55  90 E3        30.18S
PEORIA         PTCLDY    65  57  75 CALM      30.18R
LACON*         PTCLDY    62  56  82 CALM      30.18R
LINCOLN*       MOCLDY    60  56  87 CALM      30.16S
SPRINGFIELD    PTCLDY    63  56  78 E5        30.17S
TAYLORVILLE    PTCLDY    61  55  82 SE5       30.16F
$$

ILZ033-039-045-046-055>057-062-063-110800-
EAST-CENTRAL ILLINOIS

CITY           SKY/WX    TMP DP  RH WIND       PRES   REMARKS
CHAMPAIGN      MOCLDY    61  56  83 E5        30.19S
RANTOUL*       PTCLDY    64  54  70 CALM      30.20R
MATTOON          N/A     62  55  77 SE3       30.17S
PARIS*         CLEAR     55  54  97 CALM      30.18F
$$

ILZ079-100>102-110800-
SOUTHWEST ILLINOIS

CITY           SKY/WX    TMP DP  RH WIND       PRES   REMARKS
ALTON          CLEAR     63  60  92 E5        30.16S
BELLEVILLE     CLEAR     63  63 100 NW3       30.14F FOG
CAHOKIA*       CLEAR     63  59  87 CALM      30.14F
SPARTA*        CLEAR     63  57  82 E3        30.14F
$$

ILZ064>066-069>071-074>076-080>082-084>086-088>090-092>094-110800-
SOUTH-CENTRAL ILLINOIS

CITY           SKY/WX    TMP DP  RH WIND       PRES   REMARKS
CARBONDALE     CLEAR     63  61  93 CALM      30.14S FOG
CAIRO*         CLEAR     69  65  85 CALM      30.12S
MARION         FOG       63  63 100 N3        30.14F VSB 1/2
MT. VERNON     CLEAR     63  55  77 N3        30.16S
CENTRALIA*     CLEAR     60  58  92 CALM      30.16S
SALEM*         CLEAR     67  60  78 NE3       30.16F
METROPOLIS*    CLEAR     65  64  96 CALM      30.12S
$$

ILZ067-068-072-073-078-083-087-091-110800-
SOUTHEAST ILLINOIS

CITY           SKY/WX    TMP DP  RH WIND       PRES   REMARKS
FLORA*         CLEAR     61  57  86 CALM      30.17S
HARRISBURG*    CLEAR     62  62 100 CALM      30.15S
ROBINSON*      CLEAR     59  58  97 CALM      30.18S
CARMI*         CLEAR     62  61  99 CALM      30.14S
$$

ABBREVIATIONS USED IN REMARKS
   TC - TEMPERATURE IN CELSIUS
  WCI - WIND CHILL INDEX
   HX - HEAT INDEX
  VSB - VISIBILITY
$$



USA.gov is the U.S. government's official web portal to all federal, state and local government web resources and services.